This demonstration page uses our WeatherBlox Daily Observations layout. Learn more.

Left ArrowRight Arrow

Hourly Observations for September 6, 2015

Temp ( °F °C ) Dew Point ( °F °C ) Humidity (%) Winds ( mph kmh ) Pressure ( in mb ) Visibility ( mi km ) Precip ( " mm )
12:34 am 00:34 Clear with Mist and Fog 69 20.6 68 20 96 96 W 3 6 30.12 1020 2.5 4.02335 0 0
12:53 am 00:53 Clear with Mist and Fog 69 20.6 68 20 96 96 Calm 30.12 1020 3 4.82802 0 0
1:07 am 01:07 Clear with Mist and Fog 68 20 67 19.4 96 96 Calm 30.09 1019 2.5 4.02335 0 0
1:11 am 01:11 Mostly Clear with Mist and Fog 68 20 67 19.4 96 96 Calm 30.09 1019 1.75 2.816345 0 0
1:14 am 01:14 Mostly Cloudy with Mist and Fog 68 20 67 19.4 96 96 Calm 30.09 1019 1 1.60934 0 0
1:21 am 01:21 Mostly Cloudy with Fog 67 19.4 67 19.4 100 100 Calm 30.09 1019 0.5 0.80467 0 0
1:31 am 01:31 Mostly Cloudy with Mist and Fog 67 19.4 67 19.4 100 100 Calm 30.09 1019 1.75 2.816345 0 0
1:38 am 01:38 Mostly Cloudy with Mist and Fog 67 19.4 66 18.9 97 97 Calm 30.09 1019 2.5 4.02335 0 0
1:45 am 01:45 Mostly Clear with Mist and Fog 67 19.4 66 18.9 97 97 Calm 30.09 1019 1.75 2.816345 0 0
1:53 am 01:53 Mostly Clear with Mist and Fog 66 18.9 66 18.9 100 100 Calm 30.11 1020 1.25 2.011675 0 0
1:56 am 01:56 Mostly Cloudy with Mist and Fog 66 18.9 66 18.9 100 100 Calm 30.09 1019 0.75 1.207005 0 0
2:07 am 02:07 Mostly Clear with Mist and Fog 66 18.9 66 18.9 100 100 Calm 30.09 1019 1.25 2.011675 0 0
2:19 am 02:19 Mostly Clear with Mist and Fog 66 18.9 66 18.9 100 100 Calm 30.09 1019 1.75 2.816345 0 0
2:26 am 02:26 Mostly Clear with Mist and Fog 66 18.9 66 18.9 100 100 Calm 30.09 1019 2.5 4.02335 0 0
2:50 am 02:50 Clear with Mist and Fog 66 19 64 18 94 94 Calm 30.09 1019 1.75 2.816345 0 0
2:53 am 02:53 Clear with Mist and Fog 66 18.9 65 18.3 96 96 Calm 30.1 1019 2.5 4.02335 0 0
3:07 am 03:07 Clear with Mist and Fog 66 18.9 65 18.3 96 96 Calm 30.09 1019 3 4.82802 0 0
3:21 am 03:21 Clear with Mist and Fog 66 18.9 65 18.3 96 96 Calm 30.09 1019 1.5 2.41401 0 0
3:30 am 03:30 Clear with Mist and Fog 66 18.9 65 18.3 96 96 Calm 30.09 1019 2 3.21868 0 0
3:53 am 03:53 Clear with Mist and Fog 65 18.3 64 17.8 97 97 Calm 30.1 1019 2 3.21868 0 0
4:03 am 04:03 Mostly Clear with Mist and Fog 65 18.3 64 17.8 97 97 NW 5 7 30.09 1019 2 3.21868 0 0
4:06 am 04:06 Mostly Clear with Mist and Fog 65 18.3 64 17.8 97 97 NW 6 9 30.09 1019 1.5 2.41401 0 0
4:13 am 04:13 Mostly Clear with Mist and Fog 66 18.9 65 18.3 96 96 Calm 30.09 1019 2.5 4.02335 0 0
4:20 am 04:20 Clear with Mist and Fog 66 18.9 65 18.3 96 96 Calm 30.09 1019 4 6.43736 0 0
4:33 am 04:33 Clear with Mist and Fog 65 18.3 65 18.3 100 100 Calm 30.09 1019 2.5 4.02335 0 0
4:53 am 04:53 Clear with Mist and Fog 65 18.3 64 17.8 97 97 Calm 30.11 1020 4 6.43736 0 0
5:14 am 05:14 Mostly Clear with Mist and Fog 65 18.3 64 17.8 97 97 NW 3 6 30.09 1019 2.5 4.02335 0 0
5:19 am 05:19 Mostly Clear with Mist and Fog 65 18.3 64 17.8 97 97 NW 5 7 30.09 1019 1.5 2.41401 0 0
5:22 am 05:22 Mostly Cloudy with Mist and Fog 65 18.3 64 17.8 97 97 NW 3 6 30.09 1019 0.75 1.207005 0 0
5:30 am 05:30 Mostly Clear with Mist and Fog 66 18.9 65 18.3 96 96 Calm 30.09 1019 1.25 2.011675 0 0
5:38 am 05:38 Mostly Clear with Mist and Fog 65 18.3 64 17.8 97 97 Calm 30.09 1019 2 3.21868 0 0
5:53 am 05:53 Clear with Mist and Fog 65 18.3 64 17.8 97 97 Calm 30.12 1020 3 4.82802 0 0
6:09 am 06:09 Clear with Mist and Fog 64 17.8 63 17.2 96 96 Calm 30.09 1019 2.5 4.02335 0 0
6:16 am 06:16 Clear with Mist and Fog 64 17.8 63 17.2 96 96 Calm 30.09 1019 3 4.82802 0 0
6:53 am 06:53 Clear with Mist and Fog 64 17.8 63 17.2 96 96 Calm 30.13 1020 4 6.43736 0 0
7:02 am 07:02 Partly Cloudy with Mist and Fog 64 17.8 63 17.2 96 96 Calm 30.12 1020 4 6.43736 0 0
7:10 am 07:10 Mostly Clear with Mist and Fog 64 17.8 63 17.2 96 96 Calm 30.12 1020 1.75 2.816345 0 0
7:22 am 07:22 Partly Cloudy with Mist and Fog 64 17.8 63 17.2 96 96 Calm 30.12 1020 1.5 2.41401 0 0
7:33 am 07:33 Sunny with Mist and Fog 64 17.8 63 17.2 96 96 Calm 30.12 1020 2.5 4.02335 0 0
7:40 am 07:40 Sunny with Mist and Fog 64 17.8 63 17.2 96 96 Calm 30.12 1020 4 6.43736 0 0
7:53 am 07:53 Sunny with Mist and Fog 65 18.3 64 17.8 97 97 Calm 30.14 1021 3 4.82802 0 0
8:53 am 08:53 Sunny with Mist and Fog 71 21.7 68 20 90 90 Calm 30.14 1021 5 8.0467 0 0
9:53 am 09:53 Hazy 75 23.9 70 21.1 84 84 Calm 30.14 1021 6 9.65604 0 0
10:53 am 10:53 Sunny 80 26.7 71 21.7 74 74 Calm 30.15 1021 8 12.87472 0 0
11:53 am 11:53 Sunny 85 29.4 70 21.1 61 61 Calm 30.14 1021 9 14.48406 0 0
12:53 pm 12:53 Sunny 87 30.6 69 20.6 55 55 WNW 5 7 30.14 1021 10 16.0934 0 0
1:53 pm 13:53 Sunny 88 31.1 68 20 52 52 Calm 30.12 1020 10 16.0934 0 0
2:53 pm 14:53 Mostly Cloudy 88 31.1 70 21.1 55 55 Calm 30.11 1020 10 16.0934 0 0
3:53 pm 15:53 Mostly Sunny 85 29.4 72 22.2 65 65 SSE 3 6 30.09 1019 10 16.0934 0 0
4:53 pm 16:53 Sunny 90 32.2 66 18.9 45 45 Calm 30.08 1019 10 16.0934 0 0
5:53 pm 17:53 Sunny 88 31.1 70 21.1 55 55 Calm 30.06 1018 10 16.0934 0 0
6:53 pm 18:53 Sunny 83 28.3 75 23.9 77 77 Calm 30.06 1018 10 16.0934 0 0
7:53 pm 19:53 Sunny 77 25 73 22.8 88 88 Calm 30.06 1018 8 12.87472 0 0
8:53 pm 20:53 Clear 73 22.8 70 21.1 90 90 E 3 6 30.05 1018 10 16.0934 0 0
9:53 pm 21:53 Clear 72 22.2 69 20.6 91 91 Calm 30.07 1018 9 14.48406 0 0
10:53 pm 22:53 Clear 73 22.8 69 20.6 87 87 Calm 30.06 1018 9 14.48406 0 0
11:53 pm 23:53 Clear 70 21.1 68 20 93 93 Calm 30.07 1018 7 11.26538 0 0

Powered by AerisWeather